Погода в Красновишерске

Россия / Пермский край     60°24′46″N   57°04′59″E
темп.,
°C
ветер,
м/с
пор.,
м/с
влажн.,
%
обл.,
%
осадки,
мм/ч
давл.,
гПа
погр.,
м
2 марта, вт
вт223:00−14ю51295100 0.1 1007486
02:00−13ю61394100 0.3 1004544
05:00−13ю61394100 1.3 1001660
08:00−12ю51294100 1.1 996715
11:00−11ю61193100 1.7 995696
14:00−11ю61194100 0.6 993629
17:00−11ю51194100 1.4 992540
20:00−11ю41195100 0.6 992480
3 марта, ср
ср323:00−10ю41095100 1.4 992383
02:00−10ю3996100 0.3 991278
05:00−9ю3796100 0.8 991228
08:00−8ююз2497100 1.2 990178
11:00−5з2596100 2.3 991416
14:00−3з3595100 0.4 992540
17:00−4з3595100 0.8 993464
20:00−6з1297100 0.4 99440
4 марта, чт
чт423:00−8зсз2397100 0.9 99496
02:00−10з1197100 0.4 99321
05:00−13юз119897 0.4 99320
08:00−13ю129799 0.3 99354
11:00−10ю239599 0.6 993269
14:00−8ююз2493100 0.3 992514
17:00−7ююз3594100 0.5 993526
20:00−8ю2597100 0.5 993199
5 марта, пт
пт523:00−9ююз249799 1.1 993144
02:00−10юв1297100 0.3 99233
05:00−10вюв1297100 1.4 99383
08:00−11в1197100 0.7 99221
11:00−8сз1193100 0.9 993275
14:00−7зсз2393100 0.3 994449
17:00−7зсз3694100 0.6 997508
20:00−10зсз4895100 0.6 999431
6 марта, сб
сб623:00−12зсз2596100 1.1 1001185
02:00−13сз2697100 0.1 1003178
05:00−18сз229895 0.1 100533
08:00−20зсз119988 0.1 100725
11:00−17зюз129493 0.1 1007303
14:00−14юз2492100 0.1 1007570
17:00−13юз3592100 0.3 1007594
20:00−17ююз2298100 0.1 100748